• In Russia
  • List of Countries
  • For 7 days
  • Water Temperature
  • Satellite Maps
  • Weather Map
  • Weather Widgets
  • user-avatar
    Login

    Hourly Weather Muhorshibir

    Today, 21 September, Friday

    Time Temperature Precipitation Wind Pressure Humidity
    00:00 0°C° 0.2 mm 8 mps 694 mmHg 90%
    01:00 -1°C° 0 mm 7 mps 694 mmHg 90%
    02:00 -1°C° 0.1 mm 6 mps 695 mmHg 90%
    03:00 -1°C° 0.1 mm 6 mps 695 mmHg 91%
    04:00 0°C° 0.1 mm 5 mps 695 mmHg 91%
    05:00 0°C° 0.2 mm 5 mps 695 mmHg 92%
    06:00 0°C° 0.2 mm 5 mps 696 mmHg 92%
    07:00 0°C° 0.2 mm 5 mps 696 mmHg 92%
    08:00 +1°C° 0.1 mm 5 mps 697 mmHg 92%
    09:00 +1°C° 0.1 mm 5 mps 697 mmHg 91%
    10:00 +2°C° 0.1 mm 5 mps 698 mmHg 90%
    11:00 +2°C° 0 mm 5 mps 698 mmHg 89%
    12:00 +3°C° 0 mm 5 mps 698 mmHg 88%
    13:00 +5°C° 0 mm 6 mps 698 mmHg 72%
    14:00 +5°C° 0 mm 6 mps 698 mmHg 72%
    15:00 +6°C° 0 mm 5 mps 698 mmHg 71%
    16:00 +6°C° 0 mm 5 mps 699 mmHg 71%
    17:00 +5°C° 0 mm 4 mps 699 mmHg 76%
    18:00 +3°C° 0 mm 3 mps 699 mmHg 80%
    19:00 +3°C° 0 mm 3 mps 699 mmHg 83%
    20:00 +3°C° 0.1 mm 2 mps 699 mmHg 85%
    21:00 +3°C° 0.1 mm 2 mps 699 mmHg 86%
    22:00 +3°C° 0.1 mm 2 mps 699 mmHg 88%
    23:00 +3°C° 0.1 mm 2 mps 699 mmHg 89%

    Tomorrow, 22 September, Saturday

    Time Temperature Precipitation Wind Pressure Humidity
    00:00 +3°C° 0.1 mm 2 mps 700 mmHg 90%
    01:00 +3°C° 0.1 mm 2 mps 700 mmHg 91%
    02:00 +4°C° 0.1 mm 1 mps 700 mmHg 91%
    03:00 +3°C° 0.1 mm 1 mps 700 mmHg 92%
    04:00 +3°C° 0.1 mm 1 mps 700 mmHg 93%
    05:00 +3°C° 0 mm 1 mps 701 mmHg 91%
    06:00 +4°C° 0 mm 1 mps 701 mmHg 90%
    07:00 +4°C° 0 mm 1 mps 702 mmHg 88%
    08:00 +6°C° 0 mm 1 mps 702 mmHg 82%
    09:00 +8°C° 0 mm 1 mps 702 mmHg 77%
    10:00 +8°C° 0 mm 2 mps 703 mmHg 71%
    11:00 +9°C° 0 mm 2 mps 702 mmHg 68%
    12:00 +10°C° 0 mm 2 mps 702 mmHg 64%
    13:00 +12°C° 0 mm 2 mps 702 mmHg 61%
    14:00 +12°C° 0 mm 2 mps 702 mmHg 61%
    15:00 +12°C° 0 mm 2 mps 702 mmHg 62%
    16:00 +13°C° 0 mm 1 mps 702 mmHg 62%
    17:00 +10°C° 0 mm 1 mps 702 mmHg 68%
    18:00 +8°C° 0 mm 1 mps 702 mmHg 74%
    19:00 +6°C° 0 mm 1 mps 702 mmHg 80%
    20:00 +6°C° 0 mm 1 mps 702 mmHg 82%
    21:00 +5°C° 0 mm 1 mps 702 mmHg 83%
    22:00 +5°C° 0 mm 1 mps 702 mmHg 85%
    23:00 +5°C° 0 mm 1 mps 702 mmHg 86%

    Day after tomorrow, 23 September, Sunday

    Time Temperature Precipitation Wind Pressure Humidity
    00:00 +4°C° 0 mm 1 mps 702 mmHg 87%
    01:00 +4°C° 0 mm 1 mps 702 mmHg 88%
    02:00 +4°C° 0 mm 1 mps 702 mmHg 89%
    03:00 +3°C° 0 mm 1 mps 702 mmHg 90%
    04:00 +3°C° 0 mm 1 mps 702 mmHg 91%
    05:00 +4°C° 0 mm 1 mps 702 mmHg 88%
    06:00 +4°C° 0 mm 1 mps 702 mmHg 86%
    07:00 +5°C° 0 mm 1 mps 702 mmHg 84%
    08:00 +7°C° 0 mm 1 mps 702 mmHg 77%
    09:00 +9°C° 0 mm 2 mps 702 mmHg 70%
    10:00 +12°C° 0 mm 2 mps 702 mmHg 63%
    11:00 +13°C° 0 mm 2 mps 701 mmHg 59%
    12:00 +14°C° 0 mm 2 mps 701 mmHg 55%
    13:00 +15°C° 0 mm 2 mps 700 mmHg 52%
    14:00 +15°C° 0 mm 2 mps 700 mmHg 53%
    15:00 +15°C° 0 mm 2 mps 700 mmHg 55%
    16:00 +14°C° 0 mm 2 mps 699 mmHg 57%
    17:00 +12°C° 0 mm 2 mps 699 mmHg 66%
    18:00 +9°C° 0 mm 2 mps 699 mmHg 75%
    19:00 +8°C° 0 mm 1 mps 699 mmHg 84%
    20:00 +7°C° 0 mm 1 mps 699 mmHg 87%
    21:00 +7°C° 0 mm 1 mps 699 mmHg 89%
    22:00 +6°C° 0 mm 1 mps 700 mmHg 91%
    23:00 +6°C° 0 mm 1 mps 699 mmHg 92%

    24 September, Monday

    Time Temperature Precipitation Wind Pressure Humidity
    00:00 +5°C° 0 mm 1 mps 699 mmHg 92%
    01:00 +5°C° 0 mm 1 mps 699 mmHg 93%
    02:00 +5°C° 0 mm 1 mps 699 mmHg 93%
    03:00 +4°C° 0 mm 1 mps 698 mmHg 93%
    04:00 +4°C° 0 mm 1 mps 698 mmHg 93%
    05:00 +4°C° 0 mm 1 mps 698 mmHg 91%
    06:00 +5°C° 0 mm 1 mps 698 mmHg 88%
    07:00 +6°C° 0 mm 1 mps 698 mmHg 86%
    08:00 +8°C° 0 mm 1 mps 698 mmHg 78%
    09:00 +10°C° 0 mm 1 mps 698 mmHg 70%
    10:00 +12°C° 0 mm 1 mps 698 mmHg 62%
    11:00 +13°C° 0 mm 1 mps 698 mmHg 58%
    12:00 +14°C° 0 mm 1 mps 697 mmHg 54%
    13:00 +15°C° 0 mm 1 mps 697 mmHg 50%
    14:00 +15°C° 0 mm 1 mps 697 mmHg 51%
    15:00 +15°C° 0 mm 1 mps 697 mmHg 53%
    16:00 +15°C° 0 mm 1 mps 696 mmHg 55%
    17:00 +13°C° 0 mm 1 mps 696 mmHg 62%
    18:00 +10°C° 0 mm 1 mps 696 mmHg 70%
    19:00 +8°C° 0 mm 1 mps 696 mmHg 78%
    20:00 +8°C° 0 mm 1 mps 696 mmHg 80%
    21:00 +7°C° 0 mm 1 mps 696 mmHg 82%
    22:00 +7°C° 0 mm 1 mps 696 mmHg 84%
    23:00 +6°C° 0 mm 1 mps 696 mmHg 85%

    25 September, Tuesday

    Time Temperature Precipitation Wind Pressure Humidity
    00:00 +6°C° 0 mm 1 mps 696 mmHg 86%
    01:00 +6°C° 0 mm 1 mps 696 mmHg 88%
    02:00 +5°C° 0 mm 1 mps 695 mmHg 89%
    03:00 +5°C° 0 mm 1 mps 695 mmHg 89%
    04:00 +5°C° 0 mm 1 mps 695 mmHg 90%
    05:00 +5°C° 0 mm 1 mps 695 mmHg 88%
    06:00 +6°C° 0 mm 1 mps 695 mmHg 85%
    07:00 +7°C° 0 mm 1 mps 696 mmHg 82%
    08:00 +9°C° 0 mm 1 mps 696 mmHg 73%
    09:00 +12°C° 0 mm 1 mps 695 mmHg 64%
    10:00 +15°C° 0 mm 1 mps 695 mmHg 55%
    11:00 +16°C° 0 mm 1 mps 695 mmHg 50%
    12:00 +18°C° 0 mm 1 mps 695 mmHg 46%
    13:00 +19°C° 0 mm 1 mps 694 mmHg 41%
    14:00 +19°C° 0 mm 1 mps 694 mmHg 44%
    15:00 +19°C° 0 mm 1 mps 694 mmHg 46%
    16:00 +19°C° 0 mm 1 mps 694 mmHg 48%
    17:00 +15°C° 0 mm 1 mps 694 mmHg 55%
    18:00 +13°C° 0 mm 1 mps 694 mmHg 62%
    19:00 +11°C° 0 mm 1 mps 694 mmHg 69%
    20:00 +10°C° 0 mm 1 mps 694 mmHg 71%
    21:00 +10°C° 0 mm 1 mps 694 mmHg 73%
    22:00 +9°C° 0 mm 1 mps 694 mmHg 75%
    23:00 +9°C° 0 mm 1 mps 694 mmHg 76%

    26 September, Wednesday

    Time Temperature Precipitation Wind Pressure Humidity
    00:00 +9°C° 0 mm 1 mps 694 mmHg 77%
    01:00 +9°C° 0 mm 1 mps 693 mmHg 79%
    02:00 +9°C° 0.2 mm 1 mps 694 mmHg 81%
    03:00 +8°C° 0.2 mm 1 mps 694 mmHg 84%
    04:00 +8°C° 0.2 mm 1 mps 694 mmHg 86%
    05:00 +8°C° 0.7 mm 1 mps 694 mmHg 89%
    06:00 +7°C° 0.7 mm 2 mps 694 mmHg 91%
    07:00 +7°C° 0.7 mm 2 mps 694 mmHg 93%
    08:00 +7°C° 0.6 mm 2 mps 695 mmHg 91%
    09:00 +8°C° 0.6 mm 3 mps 695 mmHg 88%
    10:00 +8°C° 0.6 mm 3 mps 695 mmHg 86%
    11:00 +7°C° 0.1 mm 4 mps 695 mmHg 83%
    12:00 +8°C° 0.1 mm 4 mps 696 mmHg 80%
    13:00 +8°C° 0.1 mm 4 mps 696 mmHg 77%
    14:00 +8°C° 0 mm 4 mps 696 mmHg 75%
    15:00 +10°C° 0 mm 3 mps 696 mmHg 73%
    16:00 +10°C° 0 mm 3 mps 696 mmHg 70%
    17:00 +8°C° 0 mm 2 mps 696 mmHg 76%
    18:00 +8°C° 0 mm 1 mps 696 mmHg 82%
    19:00 +6°C° 0 mm 1 mps 697 mmHg 87%
    20:00 +6°C° 0 mm 1 mps 696 mmHg 88%
    21:00 +6°C° 0 mm 1 mps 696 mmHg 88%
    22:00 +5°C° 0 mm 2 mps 696 mmHg 88%
    23:00 +5°C° 0 mm 2 mps 696 mmHg 89%
    Show more